Meteo pe oră la Abercarn

Astăzi, 24 Iulie, Sâmbătă

Timp Temperatura Precipitaţii Vânt Presiune Umiditate
00:00 +16°C° 0 mm 6 m/s 740 mmHg 79%
01:00 +15°C° 0.3 mm 6 m/s 739 mmHg 81%
02:00 +15°C° 0.3 mm 6 m/s 739 mmHg 83%
03:00 +14°C° 0.3 mm 6 m/s 739 mmHg 86%
04:00 +14°C° 0.6 mm 6 m/s 739 mmHg 87%
05:00 +14°C° 0.6 mm 6 m/s 739 mmHg 89%
06:00 +14°C° 0.6 mm 6 m/s 738 mmHg 90%
07:00 +14°C° 0.2 mm 7 m/s 738 mmHg 90%
08:00 +15°C° 0.2 mm 7 m/s 738 mmHg 89%
09:00 +15°C° 0.2 mm 7 m/s 738 mmHg 89%
10:00 +16°C° 0.1 mm 6 m/s 738 mmHg 88%
11:00 +16°C° 0.1 mm 6 m/s 739 mmHg 87%
12:00 +17°C° 0.1 mm 5 m/s 739 mmHg 86%
13:00 +17°C° 0.2 mm 5 m/s 739 mmHg 85%
14:00 +18°C° 0.2 mm 4 m/s 739 mmHg 85%
15:00 +19°C° 0.2 mm 4 m/s 739 mmHg 85%
16:00 +19°C° 0.6 mm 4 m/s 739 mmHg 85%
17:00 +19°C° 0.6 mm 3 m/s 738 mmHg 86%
18:00 +19°C° 0.6 mm 3 m/s 738 mmHg 86%
19:00 +18°C° 0.6 mm 3 m/s 738 mmHg 89%
20:00 +17°C° 0.6 mm 3 m/s 739 mmHg 91%
21:00 +17°C° 0.6 mm 3 m/s 739 mmHg 93%
22:00 +15°C° 0.1 mm 4 m/s 739 mmHg 94%
23:00 +15°C° 0.1 mm 4 m/s 739 mmHg 94%

Mâine, 25 Iulie, Duminică

Timp Temperatura Precipitaţii Vânt Presiune Umiditate
00:00 +15°C° 0.1 mm 4 m/s 738 mmHg 95%
01:00 +14°C° 0.3 mm 4 m/s 738 mmHg 95%
02:00 +14°C° 0.3 mm 4 m/s 738 mmHg 96%
03:00 +14°C° 0.3 mm 3 m/s 738 mmHg 96%
04:00 +14°C° 0.1 mm 3 m/s 738 mmHg 96%
05:00 +14°C° 0.1 mm 3 m/s 739 mmHg 96%
06:00 +14°C° 0.1 mm 3 m/s 739 mmHg 96%
07:00 +16°C° 0 mm 3 m/s 739 mmHg 93%
08:00 +16°C° 0 mm 3 m/s 739 mmHg 90%
09:00 +17°C° 0 mm 3 m/s 739 mmHg 86%
10:00 +18°C° 0 mm 3 m/s 739 mmHg 81%
11:00 +19°C° 0 mm 2 m/s 739 mmHg 77%
12:00 +20°C° 0 mm 2 m/s 739 mmHg 72%
13:00 +21°C° 0.2 mm 2 m/s 739 mmHg 70%
14:00 +21°C° 0.2 mm 2 m/s 739 mmHg 69%
15:00 +21°C° 0.2 mm 2 m/s 739 mmHg 68%
16:00 +21°C° 0.2 mm 2 m/s 739 mmHg 71%
17:00 +21°C° 0.2 mm 3 m/s 739 mmHg 74%
18:00 +20°C° 0.2 mm 3 m/s 739 mmHg 76%
19:00 +19°C° 0.1 mm 3 m/s 739 mmHg 81%
20:00 +17°C° 0.1 mm 2 m/s 740 mmHg 85%
21:00 +16°C° 0.1 mm 2 m/s 740 mmHg 89%
22:00 +15°C° 0 mm 2 m/s 740 mmHg 90%
23:00 +15°C° 0 mm 2 m/s 740 mmHg 90%

Poimâine, 26 Iulie, Luni

Timp Temperatura Precipitaţii Vânt Presiune Umiditate
00:00 +14°C° 0 mm 2 m/s 740 mmHg 90%
01:00 +14°C° 0 mm 2 m/s 740 mmHg 90%
02:00 +14°C° 0 mm 2 m/s 740 mmHg 91%
03:00 +13°C° 0 mm 2 m/s 740 mmHg 91%
04:00 +14°C° 0 mm 2 m/s 740 mmHg 90%
05:00 +14°C° 0 mm 2 m/s 740 mmHg 89%
06:00 +15°C° 0 mm 1 m/s 740 mmHg 88%
07:00 +18°C° 0 mm 1 m/s 740 mmHg 82%
08:00 +19°C° 0 mm 1 m/s 740 mmHg 76%
09:00 +20°C° 0 mm 2 m/s 741 mmHg 71%
10:00 +21°C° 0 mm 2 m/s 740 mmHg 68%
11:00 +23°C° 0 mm 2 m/s 740 mmHg 66%
12:00 +24°C° 0 mm 3 m/s 740 mmHg 63%
13:00 +24°C° 0.3 mm 3 m/s 740 mmHg 64%
14:00 +24°C° 0.3 mm 3 m/s 740 mmHg 64%
15:00 +23°C° 0.3 mm 4 m/s 740 mmHg 64%
16:00 +22°C° 0.1 mm 3 m/s 740 mmHg 67%
17:00 +21°C° 0.1 mm 3 m/s 740 mmHg 71%
18:00 +20°C° 0.1 mm 3 m/s 740 mmHg 74%
19:00 +19°C° 0.1 mm 2 m/s 740 mmHg 77%
20:00 +17°C° 0.1 mm 2 m/s 740 mmHg 80%
21:00 +16°C° 0.1 mm 2 m/s 740 mmHg 83%
22:00 +15°C° 0 mm 2 m/s 740 mmHg 83%
23:00 +15°C° 0 mm 2 m/s 740 mmHg 83%

27 Iulie, Marţi

Timp Temperatura Precipitaţii Vânt Presiune Umiditate
00:00 +15°C° 0 mm 2 m/s 740 mmHg 82%
01:00 +14°C° 0 mm 1 m/s 740 mmHg 83%
02:00 +14°C° 0 mm 1 m/s 740 mmHg 84%
03:00 +14°C° 0 mm 1 m/s 740 mmHg 86%
04:00 +14°C° 0 mm 1 m/s 740 mmHg 85%
05:00 +15°C° 0 mm 1 m/s 740 mmHg 84%
06:00 +14°C° 0 mm 0 m/s 740 mmHg 84%
07:00 +18°C° 0 mm 1 m/s 740 mmHg 79%
08:00 +19°C° 0 mm 1 m/s 740 mmHg 75%
09:00 +20°C° 0 mm 1 m/s 740 mmHg 70%
10:00 +20°C° 0.2 mm 2 m/s 740 mmHg 69%
11:00 +21°C° 0.2 mm 3 m/s 740 mmHg 67%
12:00 +21°C° 0.2 mm 3 m/s 740 mmHg 66%
13:00 +21°C° 0.5 mm 4 m/s 740 mmHg 69%
14:00 +21°C° 0.5 mm 5 m/s 740 mmHg 71%
15:00 +20°C° 0.5 mm 6 m/s 740 mmHg 74%
16:00 +19°C° 0.2 mm 6 m/s 740 mmHg 76%
17:00 +17°C° 0.2 mm 6 m/s 740 mmHg 78%
18:00 +16°C° 0.2 mm 6 m/s 740 mmHg 80%
19:00 +15°C° 0 mm 5 m/s 740 mmHg 83%
20:00 +14°C° 0 mm 5 m/s 740 mmHg 85%
21:00 +12°C° 0 mm 4 m/s 741 mmHg 88%
22:00 +12°C° 0 mm 4 m/s 741 mmHg 89%
23:00 +12°C° 0 mm 4 m/s 741 mmHg 90%

28 Iulie, Miercuri

Timp Temperatura Precipitaţii Vânt Presiune Umiditate
00:00 +12°C° 0 mm 4 m/s 740 mmHg 91%
01:00 +11°C° 0 mm 3 m/s 740 mmHg 91%
02:00 +11°C° 0 mm 3 m/s 740 mmHg 92%
03:00 +11°C° 0 mm 3 m/s 740 mmHg 92%
04:00 +11°C° 0 mm 3 m/s 740 mmHg 91%
05:00 +12°C° 0 mm 2 m/s 740 mmHg 90%
06:00 +13°C° 0 mm 2 m/s 741 mmHg 89%
07:00 +13°C° 0 mm 3 m/s 741 mmHg 82%
08:00 +14°C° 0 mm 4 m/s 741 mmHg 74%
09:00 +15°C° 0 mm 5 m/s 741 mmHg 66%
10:00 +16°C° 0 mm 5 m/s 742 mmHg 64%
11:00 +17°C° 0 mm 6 m/s 742 mmHg 62%
12:00 +17°C° 0 mm 7 m/s 742 mmHg 60%
13:00 +17°C° 0 mm 7 m/s 742 mmHg 60%
14:00 +17°C° 0 mm 7 m/s 742 mmHg 60%
15:00 +17°C° 0 mm 7 m/s 742 mmHg 60%
16:00 +17°C° 0 mm 7 m/s 742 mmHg 65%
17:00 +16°C° 0 mm 6 m/s 742 mmHg 69%
18:00 +16°C° 0 mm 6 m/s 741 mmHg 74%
19:00 +15°C° 0 mm 5 m/s 741 mmHg 79%
20:00 +13°C° 0 mm 5 m/s 741 mmHg 84%
21:00 +12°C° 0 mm 4 m/s 741 mmHg 89%
22:00 +12°C° 0 mm 4 m/s 741 mmHg 90%
23:00 +12°C° 0 mm 4 m/s 740 mmHg 92%

29 Iulie, Joi

Timp Temperatura Precipitaţii Vânt Presiune Umiditate
00:00 +12°C° 0 mm 4 m/s 740 mmHg 94%
01:00 +13°C° 0.3 mm 5 m/s 739 mmHg 94%
02:00 +13°C° 0.3 mm 6 m/s 738 mmHg 94%
03:00 +14°C° 0.3 mm 7 m/s 738 mmHg 95%
04:00 +14°C° 0.2 mm 7 m/s 737 mmHg 94%
05:00 +14°C° 0.2 mm 7 m/s 737 mmHg 93%
06:00 +14°C° 0.2 mm 7 m/s 737 mmHg 91%
07:00 +14°C° 0.2 mm 7 m/s 736 mmHg 88%
08:00 +15°C° 0.2 mm 8 m/s 736 mmHg 85%
09:00 +16°C° 0.2 mm 8 m/s 736 mmHg 82%
10:00 +15°C° 0.4 mm 8 m/s 736 mmHg 84%
11:00 +15°C° 0.4 mm 8 m/s 736 mmHg 86%
12:00 +13°C° 0.4 mm 9 m/s 736 mmHg 88%
13:00 +15°C° 0.7 mm 8 m/s 735 mmHg 86%
14:00 +15°C° 0.7 mm 8 m/s 735 mmHg 85%
15:00 +16°C° 0.7 mm 8 m/s 735 mmHg 84%
16:00 +16°C° 0.2 mm 7 m/s 735 mmHg 83%
17:00 +15°C° 0.2 mm 6 m/s 735 mmHg 82%
18:00 +15°C° 0.2 mm 5 m/s 736 mmHg 81%
19:00 +14°C° 0 mm 4 m/s 736 mmHg 83%
20:00 +12°C° 0 mm 4 m/s 736 mmHg 86%
21:00 +11°C° 0 mm 3 m/s 737 mmHg 89%
22:00 +11°C° 0 mm 3 m/s 737 mmHg 89%
23:00 +11°C° 0 mm 3 m/s 737 mmHg 89%
Arată mai mult

Formular de consimțământ

Meteoprog și furnizorii noștri de servicii pot stoca și accesa date personale, precum cookies, identificatori de dispozitiv sau alte tehnologii similare pe dispozitivul dumneavoastră și procesa astfel de date pentru a personaliza conținutul și reclamele, dar și pentru a oferi caracteristici de social media și pentru a analiza traficul.

  • Stocarea și/sau accesarea informațiilor pe dispozitivul dumneavoastră

    Cookies, identificatori de dispozitiv sau alte informații pot fi stocate sau accesate pe dispozitiv în scopurile indicate mai sus.

  • Reclame și conținut personalizat, evaluarea reclamelor și a conținutului, informații despre audiențe și dezvoltarea produselor

    Reclamele și conținutul pot fi personalizate pe baza unui profil. Pot fi adăugate date suplimentare pentru a personaliza mai bine reclamele și conținutul. Performanța reclamelor și conținutului poate fi măsurată. Pot fi obținute informații despre utilizatorii care au văzut reclamele și conținutul. Aceste date pot fi utilizate pentru a dezvolta sau îmbunătăți experiența utilizatorilor, sistemele și software-ul.

Dând clic pe ‘Sunt de acord’, permiteți utilizarea cookie-urilor menționate, a identificatorilor de dispozitiv, balizelor web sau altor tehnologii similare. Setările pot fi modificate din browser-ul dispozitivului dumneavoastră.

În anumite scopuri, interesele legitime pot prima asupra consimțământului. Puteți citi mai multe informații în acest sens în Politica privind Confidențialitatea Datelor și Cookie.